Tracking 31027 objects as of 19-Jul-2025
HD Live streaming from Space Station
objects crossing your sky now

SL-14 DEB

Track SL-14 DEB now!
10-day predictions


NORAD ID: 45267
Int'l Code: 1991-056D
Perigee: 1,202.5 km
Apogee: 1,226.3 km
Inclination: 82.6 °
Period: 109.6 minutes
Semi major axis: 7585 km
RCS: Unknown
Launch date: August 15, 1991
Source: Commonwealth of Independent States (former USSR) (CIS)
Launch site: PLESETSK MISSILE AND SPACE COMPLEX (PKMTR)

Note: This is SATELLITE DEBRIS
Your satellite tracking list
FENGYUN 1C DEB
Track 1 satellite(s)




NASA's NSSDC Master Catalog

Two Line Element Set (TLE):
1 45267U 91056D   25199.77858407 -.00000331  00000-0 -93100-3 0  9992
2 45267  82.5667  24.3111 0015688  20.4292 339.7453 13.14119876260439
Source of the keplerian elements: AFSPC